Regional Weather Roundup
Issued by NWS

Home | Current Version | Previous Version | Text Only | Print | Product List | Glossary Off
Versions: 1 2 3 4 5 6 7 8 9 10 11 12 13 14 15 16 17 18 19 20 21 22 23 24 25 26 27 28 29 30 31 32 33 34 35 36 37 38 39 40 41 42 43 44 45 46 47 48 49 50

000
ASUS43 KLMK 052302
RWRKY
KENTUCKY REGIONAL WEATHER ROUNDUP
NATIONAL WEATHER SERVICE LOUISVILLE KY
600 PM EST FRI FEB 05 2016

NOTE "FAIR" INDICATES FEW OR NO CLOUDS BELOW 12,000 FEET
WITH NO SIGNIFICANT WEATHER AND/OR OBSTRUCTIONS TO VISIBILITY.

KYZ001>023-026-027-061>063-070>075-060000-
WESTERN AND SOUTH CENTRAL KENTUCKY

CITY           SKY/WX    TMP DP  RH WIND       PRES   REMARKS
PADUCAH        PTCLDY    46  23  40 W7        30.37S
HENDERSON      CLEAR     45  25  45 NW3       30.37S
OWENSBORO      CLOUDY    44  26  49 CALM      30.38R
HOPKINSVILLE   CLOUDY    45  22  39 SW6       30.37S
BOWLING GREEN  CLEAR     45  18  34 SW8       30.39S
GLASGOW        NOT AVBL
$$

KYZ024-025-028>034-038-045-046-053-060000-
NORTH CENTRAL KENTUCKY

CITY           SKY/WX    TMP DP  RH WIND       PRES   REMARKS
LOUISVILLE/SDF CLOUDY    44  18  35 SW8       30.37R
LOUISVILLE/LOU CLOUDY    43  19  38 SW5       30.37S
FORT KNOX      CLOUDY    41  20  44 SW7       30.35S
$$

KYZ035>037-039>044-047>052-055>060-089>105-060000-
NORTHEAST KENTUCKY

CITY           SKY/WX    TMP DP  RH WIND       PRES   REMARKS
LEXINGTON      CLOUDY    38  18  44 S6        30.37S WCI  33
COVINGTON      MOCLDY    39  18  42 S7        30.35S WCI  34
FRANKFORT      CLOUDY    40  17  39 S7        30.36S
$$

KYZ054-064>069-076>088-106>120-060000-
SOUTHEAST KENTUCKY

CITY           SKY/WX    TMP DP  RH WIND       PRES   REMARKS
JACKSON        CLOUDY    38  12  34 CALM      30.38R
LONDON         CLOUDY    39  13  34 CALM      30.38S
SOMERSET       NOT AVBL
MIDDLESBORO    NOT AVBL
MONTICELLO     CLOUDY    39  22  50 W7        30.41F WCI  34
$$




USA.gov is the U.S. government's official web portal to all federal, state and local government web resources and services.